Retour au catalogue

CZ-6A DEB

ActifPO
NORAD 54610·DEBRIS·🇨🇳 China

Lancé Nov 11, 2022 depuis Taiyuan Satellite Launch Center

Loading…

Prochains Passages (prochaines 24 heures)

TLE

FraisSource: Space-Track

Époque: Sep 14, 2026, 03:21 UTC

1 54610U 22151NL  26257.13987733  .00007250  00000-0  13649-2 0  9999
2 54610  98.6295 316.0349 0067576  53.6278 307.1132 14.63421381130144

Suivez CZ-6A DEB en temps réel avec AllMySat

Download on the App Store